Погода в Решетникове

Россия / Санкт-Петербург и Ленинградская область     60°14′43″N   29°42′39″E
темп.,
°C
ветер,
м/с
пор.,
м/с
влажн.,
%
обл.,
%
осадки,
мм/ч
давл.,
гПа
погр.,
м
27 июля, вт
вт2700:00+18сз11670 0.0 102011
03:00+16ююз11726 0.0 102011
06:00+18ю11683 0.0 102011
09:00+24ююз11504 0.0 1019352
12:00+26ю22393 0.0 10191663
15:00+28ююз22342 0.0 10171865
18:00+28ю22355 0.0 10161166
21:00+24юв224870 0.0 101535
28 июля, ср
ср2800:00+19вюв2263100 0.0 101517
03:00+18в3662100 0.0 1014110
06:00+18вюв2665100 0.0 1012113
09:00+19юв1373100 0.4 1011126
12:00+20ююз2276100 1.4 1011258
15:00+22ю0267100 1.9 1009347
18:00+22вюв3666100 0.0 1008463
21:00+19в119090 2.9 100626
29 июля, чт
чт2900:00+17ссз119657 1.6 100514
03:00+17з269650 1.9 1004138
06:00+17з289533 0.0 1004234
09:00+19зюз5886100 0.0 1003578
12:00+22зюз6963100 0.0 10031077
15:00+22зюз7116034 0.1 10021375
18:00+22зюз713605 0.0 10011248
21:00+19зюз512741 0.0 1001621
30 июля, пт
пт3000:00+17зюз3118978 0.0 1001477
03:00+17юз41085100 0.0 1001486
06:00+17юз5118392 0.0 1001690
09:00+19юз6106753 0.3 10011133
12:00+21зюз7105421 0.6 10011419
15:00+21зюз510505 0.9 9991544
18:00+20зюз5105472 0.1 9991178
21:00+17зюз5117290 0.9 998582
31 июля, сб
сб3100:00+15ююв5118928 1.1 996362
03:00+15ю71477100 1.1 9941140
06:00+15ююз81490100 1.5 992989
09:00+16юз8149084 2.8 9911083
12:00+18зюз813750 1.7 9921264
15:00+20зюз812611 1.7 9941255
18:00+20зюз7106120 0.0 9951223
21:00+17зюз5107719 0.0 997528